星链-11430 (STARLINK-11430)

导读

STARLINK-11430是美国于2025年2月8日发射的星链系列卫星,隶属于SpaceX公司的星链互联网星座项目。该项目旨在打造覆盖全球的低轨卫星互联网,为全球提供高速宽带服务,此卫星的发射延续了星链星座的部署节奏,进一步扩充星座规模,提升全球网络覆盖能力与服务容量。

基本信息
目录编号:
62916
目录名称:
STARLINK-11430
国际标识:
2025-027K
轨道中心:
EARTH
卫星名称:
星链-11430
卫星全名:
星链-11430 (STARLINK-11430)
卫星状态:
在轨 (已飞行580 天)
发射日期:
2025-02-08 UTC
国别 :
美国 (US)
星等 :
--
该卫星已列入 空间交会检测服务 Space Conjunction Data Service (SCDS) ,当前飞行风险评估等级: 无高风险
轨道信息
数据来源 国际轨道数据
星历时间: 2026-09-11T12:48:53+0800
9小时前
查看轨道信息
半长轴: 6734.593km
偏心率: 0.000142
轨道倾角: 42.999°
近地点辐角 266.137°
升交点赤经 309.870°
平近点角 93.933°
近地点: 355.499km
远地点: 357.413km
周期: 91.670分钟
每日圈数: 15.70854
详细信息
固有亮度:
5
最大亮度:
2.5
卫星平台:
Starlink V1.0
覆盖范围:
全球
运营商:
太空探索技术公司
运营商所在国:
美国
制造商(研发单位):
太空探索技术公司
制造商所在国:
美国
使用方式:
暂无
卫星简介
Starlink 计划是 SpaceX 推出的全球卫星互联网项目,通过发射低轨道卫星,为全球尤其是偏远地区提供高速、低延迟的互联网服务。自 2019 年起,Starlink 已部署数千颗卫星,旨在缩小全球数字鸿沟,推动互联网普及。该项目还为军事、航空等行业提供通信支持,带来广泛经济效益。
2D轨道图
3D轨道图
轨道高度分析图
轨道倾角分析图
轨道综合分析图
查看轨道综合分析图
交会数据列表
事件ID 空间交会对象 最接近时刻(TCA) 交会距离 交会风险概率(CRP) 交会风险指数(CRI) 操作
CDM_260911-202206-206706-291621
2026-09-11T
20:22:19+0000
1.890 km
极远距离
2.037352E-6 低风险 0.41
CDM_260912-113202-032706-291621
2026-09-12T
11:32:19+0000
2.667 km
极远距离
1.334075E-6 低风险 0.38
与全量物体交会距离演化趋势
与全量物体交会风险概率演化趋势